Regional Weather Roundup
Issued by NWS

Home | Current Version | Previous Version | Text Only | Print | Product List | Glossary Off
Versions: 1 2 3 4 5 6 7 8 9 10 11 12 13 14 15 16 17 18 19 20 21 22 23 24 25 26 27 28 29 30 31 32 33 34 35 36 37 38 39 40 41 42 43 44 45 46 47 48 49 50

000
ASUS45 KSLC 291910
RWRUT

UTAH REGIONAL WEATHER ROUNDUP
NATIONAL WEATHER SERVICE SALT LAKE CITY UT
100 PM MDT MON SEP 29 2014

UTZ001>011-023>025-292000-

NORTHERN UTAH

CITY           SKY/WX    TMP DP  RH WIND       PRES   REMARKS
HILL AFB       MOSUNNY   61  44  54 VRB5      30.00F
LOGAN          NOT AVBL
OGDEN          MOSUNNY   63  42  46 W8        29.98F
PROVO AIRPORT  MOSUNNY   61  41  48 SE5       30.02F
SALT LAKE CITY MOSUNNY   63  42  46 VRB5      29.97F
VERNAL         PTSUNNY   53  44  71 S7        30.04F
WENDOVER       CLOUDY    59  39  47 NW12      30.01S
HEBER CITY     CLOUDY    55  39  54 SW7       30.01F
WEST JORDAN    MOSUNNY   63  43  48 SE13      30.00S

$$

UTZ012>022-026-027-292000-

SOUTHERN UTAH

CITY           SKY/WX    TMP DP  RH WIND       PRES   REMARKS
BRYCE CANYON   PTSUNNY   51  33  50 W9        30.11S
CEDAR CITY     CLOUDY    60  36  40 SW8       30.05S
MILFORD        MOSUNNY   64  40  41 S15       30.01F
MOAB/CYNLANDS  PTSUNNY   59  48  67 NW9       29.99S
PRICE          PTSUNNY   56  40  55 SE7       30.04F
ST GEORGE      PTCLDY    72  39  30 W7        30.00S
KANAB            N/A     61  41  48 S12       30.08F

$$

REGIONAL REPORTS     COLORADO/ARIZONA

CITY           SKY/WX    TMP DP  RH WIND       PRES   REMARKS
CRAIG, CO      CLOUDY    58  42  55 W10       30.02F
GRAND JUNCTION RAIN      55  52  89 NW10      29.97F
RIFLE          CLOUDY    62  45  53 NW14      29.96F
MONTROSE       CLOUDY    57  45  64 E5        29.99F
CORTEZ         PTSUNNY   55  49  80 S5        30.03F
PAGE, AZ       NOT AVBL
GRAND CANYON   SUNNY     56  35  45 VRB6      30.13S
KINGMAN        NOT AVBL
FLAGSTAFF      SUNNY     58  29  33 W9        30.14S

$$

REGIONAL REPORTS    NEVADA/IDAHO/WYOMING

CITY           SKY/WX    TMP DP  RH WIND       PRES   REMARKS
LAS VEGAS, NV  MOSUNNY   77  38  24 CALM      29.92F
ELY            CLOUDY    56  35  45 W13       30.07S
ELKO           LGT RAIN  49  45  86 SW9       30.06R
POCATELLO, ID  PTSUNNY   58  48  69 W8        29.99S
BURLEY         CLOUDY    53  47  79 W3        30.00S
EVANSTON, WY   LGT RAIN  49  39  68 W6        30.04F
ROCK SPRINGS   PTSUNNY   51  40  65 SW7       30.04F

$$



USA.gov is the U.S. government's official web portal to all federal, state and local government web resources and services.